owner,sensor,date,latitude,longitude,air_temperature,qcFlag 
COMPS,ioos:station:USF.COMPS:C10:1,2019-03-01T00:05:00Z,27.1690,-82.9260,19.83,1111122 
COMPS,ioos:station:USF.COMPS:C10:1,2019-03-01T00:35:00Z,27.1690,-82.9260,19.93,1111122 
COMPS,ioos:station:USF.COMPS:C10:1,2019-03-01T01:05:00Z,27.1690,-82.9260,20.05,1111122 
COMPS,ioos:station:USF.COMPS:C10:1,2019-03-01T01:35:00Z,27.1690,-82.9260,20.05,1111122 
COMPS,ioos:station:USF.COMPS:C10:1,2019-03-01T02:05:00Z,27.1690,-82.9260,20.11,1111122 
COMPS,ioos:station:USF.COMPS:C10:1,2019-03-01T02:35:00Z,27.1690,-82.9260,20.04,1111122 
COMPS,ioos:station:USF.COMPS:C10:1,2019-03-01T03:05:00Z,27.1690,-82.9260,20.19,1111122 
COMPS,ioos:station:USF.COMPS:C10:1,2019-03-01T03:35:00Z,27.1690,-82.9260,20.1,1111122 
COMPS,ioos:station:USF.COMPS:C10:1,2019-03-01T04:05:00Z,27.1690,-82.9260,20.19,1111122 
COMPS,ioos:station:USF.COMPS:C10:1,2019-03-01T04:35:00Z,27.1690,-82.9260,20.14,1111122 
COMPS,ioos:station:USF.COMPS:C10:1,2019-03-01T05:05:00Z,27.1690,-82.9260,20.24,1111122 
COMPS,ioos:station:USF.COMPS:C10:1,2019-03-01T05:35:00Z,27.1690,-82.9260,20.18,1111122 
COMPS,ioos:station:USF.COMPS:C10:1,2019-03-01T06:05:00Z,27.1690,-82.9260,20.21,1111122 
COMPS,ioos:station:USF.COMPS:C10:1,2019-03-01T06:35:00Z,27.1690,-82.9260,20.22,1111122 
COMPS,ioos:station:USF.COMPS:C10:1,2019-03-01T07:05:00Z,27.1690,-82.9260,20.23,1111122 
COMPS,ioos:station:USF.COMPS:C10:1,2019-03-01T07:35:00Z,27.1690,-82.9260,20.12,1111122 
COMPS,ioos:station:USF.COMPS:C10:1,2019-03-01T08:05:00Z,27.1690,-82.9260,20.1,1111122 
COMPS,ioos:station:USF.COMPS:C10:1,2019-03-01T08:35:00Z,27.1690,-82.9260,20.1,1111122 
COMPS,ioos:station:USF.COMPS:C10:1,2019-03-01T09:05:00Z,27.1690,-82.9260,20.11,1111122 
COMPS,ioos:station:USF.COMPS:C10:1,2019-03-01T09:35:00Z,27.1690,-82.9260,20.21,1111122 
COMPS,ioos:station:USF.COMPS:C10:1,2019-03-01T10:05:00Z,27.1690,-82.9260,20.25,1111122 
COMPS,ioos:station:USF.COMPS:C10:1,2019-03-01T10:35:00Z,27.1690,-82.9260,20.25,1111122 
COMPS,ioos:station:USF.COMPS:C10:1,2019-03-01T11:05:00Z,27.1690,-82.9260,20.3,1111122 
COMPS,ioos:station:USF.COMPS:C10:1,2019-03-01T11:35:00Z,27.1690,-82.9260,20.35,1111122 
COMPS,ioos:station:USF.COMPS:C10:1,2019-03-01T12:05:00Z,27.1690,-82.9260,20.51,1111122 
COMPS,ioos:station:USF.COMPS:C10:1,2019-03-01T12:35:00Z,27.1690,-82.9260,20.53,1111122 
COMPS,ioos:station:USF.COMPS:C10:1,2019-03-01T13:05:00Z,27.1690,-82.9260,20.54,1111122 
COMPS,ioos:station:USF.COMPS:C10:1,2019-03-01T13:35:00Z,27.1690,-82.9260,20.21,1111122 
COMPS,ioos:station:USF.COMPS:C10:1,2019-03-01T14:05:00Z,27.1690,-82.9260,20.35,1111122 
COMPS,ioos:station:USF.COMPS:C10:1,2019-03-01T14:35:00Z,27.1690,-82.9260,20.7,1111122 
COMPS,ioos:station:USF.COMPS:C10:1,2019-03-01T15:05:00Z,27.1690,-82.9260,21.04,1111122 
COMPS,ioos:station:USF.COMPS:C10:1,2019-03-01T15:35:00Z,27.1690,-82.9260,21.06,1111122 
COMPS,ioos:station:USF.COMPS:C10:1,2019-03-01T16:05:00Z,27.1690,-82.9260,20.93,1111122 
COMPS,ioos:station:USF.COMPS:C10:1,2019-03-01T16:35:00Z,27.1690,-82.9260,20.86,1111122 
COMPS,ioos:station:USF.COMPS:C10:1,2019-03-01T17:05:00Z,27.1690,-82.9260,20.97,1111122 
COMPS,ioos:station:USF.COMPS:C10:1,2019-03-01T17:35:00Z,27.1690,-82.9260,21.09,1111122 
COMPS,ioos:station:USF.COMPS:C10:1,2019-03-01T18:05:00Z,27.1690,-82.9260,21.26,1111122 
COMPS,ioos:station:USF.COMPS:C10:1,2019-03-01T18:35:00Z,27.1690,-82.9260,21.4,1111122 
COMPS,ioos:station:USF.COMPS:C10:1,2019-03-01T19:05:00Z,27.1690,-82.9260,21.61,1111122 
COMPS,ioos:station:USF.COMPS:C10:1,2019-03-01T19:35:00Z,27.1690,-82.9260,21.58,1111122 
COMPS,ioos:station:USF.COMPS:C10:1,2019-03-01T20:05:00Z,27.1690,-82.9260,21.82,1111122 
COMPS,ioos:station:USF.COMPS:C10:1,2019-03-01T20:35:00Z,27.1690,-82.9260,22.1,1111122 
COMPS,ioos:station:USF.COMPS:C10:1,2019-03-01T21:05:00Z,27.1690,-82.9260,21.92,1111122 
COMPS,ioos:station:USF.COMPS:C10:1,2019-03-01T21:35:00Z,27.1690,-82.9260,21.82,1111122 
COMPS,ioos:station:USF.COMPS:C10:1,2019-03-01T22:05:00Z,27.1690,-82.9260,21.97,1111122 
COMPS,ioos:station:USF.COMPS:C10:1,2019-03-01T22:35:00Z,27.1690,-82.9260,21.76,1111122 
COMPS,ioos:station:USF.COMPS:C10:1,2019-03-01T23:05:00Z,27.1690,-82.9260,21.61,1111122 
COMPS,ioos:station:USF.COMPS:C10:1,2019-03-01T23:35:00Z,27.1690,-82.9260,21.47,1111122 
COMPS,ioos:station:USF.COMPS:C10:1,2019-03-02T00:05:00Z,27.1690,-82.9260,21.22,1111122 
COMPS,ioos:station:USF.COMPS:C10:1,2019-03-02T00:35:00Z,27.1690,-82.9260,21.2,1111122 
COMPS,ioos:station:USF.COMPS:C10:1,2019-03-02T01:05:00Z,27.1690,-82.9260,21.05,1111122 
COMPS,ioos:station:USF.COMPS:C10:1,2019-03-02T01:35:00Z,27.1690,-82.9260,20.94,1111122 
COMPS,ioos:station:USF.COMPS:C10:1,2019-03-02T02:05:00Z,27.1690,-82.9260,20.99,1111122 
COMPS,ioos:station:USF.COMPS:C10:1,2019-03-02T02:35:00Z,27.1690,-82.9260,20.98,1111122 
COMPS,ioos:station:USF.COMPS:C10:1,2019-03-02T03:05:00Z,27.1690,-82.9260,20.93,1111122 
COMPS,ioos:station:USF.COMPS:C10:1,2019-03-02T03:35:00Z,27.1690,-82.9260,20.79,1111122 
COMPS,ioos:station:USF.COMPS:C10:1,2019-03-02T04:05:00Z,27.1690,-82.9260,20.74,1111122 
COMPS,ioos:station:USF.COMPS:C10:1,2019-03-02T04:35:00Z,27.1690,-82.9260,20.78,1111122 
COMPS,ioos:station:USF.COMPS:C10:1,2019-03-02T05:05:00Z,27.1690,-82.9260,20.77,1111122 
COMPS,ioos:station:USF.COMPS:C10:1,2019-03-02T05:35:00Z,27.1690,-82.9260,20.8,1111122 
COMPS,ioos:station:USF.COMPS:C10:1,2019-03-02T06:05:00Z,27.1690,-82.9260,20.7,1111122 
COMPS,ioos:station:USF.COMPS:C10:1,2019-03-02T06:35:00Z,27.1690,-82.9260,20.76,1111122 
COMPS,ioos:station:USF.COMPS:C10:1,2019-03-02T07:05:00Z,27.1690,-82.9260,20.78,1111122 
COMPS,ioos:station:USF.COMPS:C10:1,2019-03-02T07:35:00Z,27.1690,-82.9260,20.77,1111122 
COMPS,ioos:station:USF.COMPS:C10:1,2019-03-02T08:05:00Z,27.1690,-82.9260,20.64,1111122 
COMPS,ioos:station:USF.COMPS:C10:1,2019-03-02T08:35:00Z,27.1690,-82.9260,20.62,1111122 
COMPS,ioos:station:USF.COMPS:C10:1,2019-03-02T09:05:00Z,27.1690,-82.9260,20.53,1111122 
COMPS,ioos:station:USF.COMPS:C10:1,2019-03-02T09:35:00Z,27.1690,-82.9260,20.51,1111122 
COMPS,ioos:station:USF.COMPS:C10:1,2019-03-02T10:05:00Z,27.1690,-82.9260,20.52,1111122 
COMPS,ioos:station:USF.COMPS:C10:1,2019-03-02T10:35:00Z,27.1690,-82.9260,20.37,1111122 
COMPS,ioos:station:USF.COMPS:C10:1,2019-03-02T11:05:00Z,27.1690,-82.9260,20.28,1111122 
COMPS,ioos:station:USF.COMPS:C10:1,2019-03-02T11:35:00Z,27.1690,-82.9260,20.13,1111122 
COMPS,ioos:station:USF.COMPS:C10:1,2019-03-02T12:05:00Z,27.1690,-82.9260,19.94,1111122 
COMPS,ioos:station:USF.COMPS:C10:1,2019-03-02T12:35:00Z,27.1690,-82.9260,20.11,1111122 
COMPS,ioos:station:USF.COMPS:C10:1,2019-03-02T13:05:00Z,27.1690,-82.9260,20.24,1111122 
COMPS,ioos:station:USF.COMPS:C10:1,2019-03-02T13:35:00Z,27.1690,-82.9260,20.49,1111122 
COMPS,ioos:station:USF.COMPS:C10:1,2019-03-02T14:05:00Z,27.1690,-82.9260,20.48,1111122 
COMPS,ioos:station:USF.COMPS:C10:1,2019-03-02T14:35:00Z,27.1690,-82.9260,20.51,1111122 
COMPS,ioos:station:USF.COMPS:C10:1,2019-03-02T15:05:00Z,27.1690,-82.9260,20.52,1111122 
COMPS,ioos:station:USF.COMPS:C10:1,2019-03-02T15:35:00Z,27.1690,-82.9260,20.69,1111122 
COMPS,ioos:station:USF.COMPS:C10:1,2019-03-02T16:05:00Z,27.1690,-82.9260,20.41,1111122 
COMPS,ioos:station:USF.COMPS:C10:1,2019-03-02T16:35:00Z,27.1690,-82.9260,20.58,1111122 
COMPS,ioos:station:USF.COMPS:C10:1,2019-03-02T17:05:00Z,27.1690,-82.9260,20.41,1111122 
COMPS,ioos:station:USF.COMPS:C10:1,2019-03-02T17:35:00Z,27.1690,-82.9260,20.66,1111122 
COMPS,ioos:station:USF.COMPS:C10:1,2019-03-02T18:05:00Z,27.1690,-82.9260,21.03,1111122 
COMPS,ioos:station:USF.COMPS:C10:1,2019-03-02T18:35:00Z,27.1690,-82.9260,21.16,1111122 
COMPS,ioos:station:USF.COMPS:C10:1,2019-03-02T19:05:00Z,27.1690,-82.9260,21.49,1111122 
COMPS,ioos:station:USF.COMPS:C10:1,2019-03-02T19:35:00Z,27.1690,-82.9260,21.83,1111122 
COMPS,ioos:station:USF.COMPS:C10:1,2019-03-02T20:05:00Z,27.1690,-82.9260,21.91,1111122 
COMPS,ioos:station:USF.COMPS:C10:1,2019-03-02T20:35:00Z,27.1690,-82.9260,22.13,1111122 
COMPS,ioos:station:USF.COMPS:C10:1,2019-03-02T21:05:00Z,27.1690,-82.9260,22.47,1111122 
COMPS,ioos:station:USF.COMPS:C10:1,2019-03-02T21:35:00Z,27.1690,-82.9260,22.59,1111122 
COMPS,ioos:station:USF.COMPS:C10:1,2019-03-02T22:05:00Z,27.1690,-82.9260,23.06,1111122 
COMPS,ioos:station:USF.COMPS:C10:1,2019-03-02T22:35:00Z,27.1690,-82.9260,22.63,1111122 
COMPS,ioos:station:USF.COMPS:C10:1,2019-03-02T23:05:00Z,27.1690,-82.9260,22.36,1111122 
COMPS,ioos:station:USF.COMPS:C10:1,2019-03-02T23:35:00Z,27.1690,-82.9260,21.99,1111122 
COMPS,ioos:station:USF.COMPS:C10:1,2019-03-03T00:05:00Z,27.1690,-82.9260,21.7,1111122 
COMPS,ioos:station:USF.COMPS:C10:1,2019-03-03T00:35:00Z,27.1690,-82.9260,21.58,1111122 
COMPS,ioos:station:USF.COMPS:C10:1,2019-03-03T01:05:00Z,27.1690,-82.9260,21.5,1111122 
COMPS,ioos:station:USF.COMPS:C10:1,2019-03-03T01:35:00Z,27.1690,-82.9260,21.44,1111122 
COMPS,ioos:station:USF.COMPS:C10:1,2019-03-03T02:05:00Z,27.1690,-82.9260,21.36,1111122 
COMPS,ioos:station:USF.COMPS:C10:1,2019-03-03T02:35:00Z,27.1690,-82.9260,21.19,1111122 
COMPS,ioos:station:USF.COMPS:C10:1,2019-03-03T03:05:00Z,27.1690,-82.9260,21.15,1111122 
COMPS,ioos:station:USF.COMPS:C10:1,2019-03-03T03:35:00Z,27.1690,-82.9260,21.13,1111122 
COMPS,ioos:station:USF.COMPS:C10:1,2019-03-03T04:05:00Z,27.1690,-82.9260,21.0,1111122 
COMPS,ioos:station:USF.COMPS:C10:1,2019-03-03T04:35:00Z,27.1690,-82.9260,21.04,1111122 
COMPS,ioos:station:USF.COMPS:C10:1,2019-03-03T05:05:00Z,27.1690,-82.9260,20.99,1111122 
COMPS,ioos:station:USF.COMPS:C10:1,2019-03-03T05:35:00Z,27.1690,-82.9260,20.86,1111122 
COMPS,ioos:station:USF.COMPS:C10:1,2019-03-03T06:05:00Z,27.1690,-82.9260,20.71,1111122 
COMPS,ioos:station:USF.COMPS:C10:1,2019-03-03T06:35:00Z,27.1690,-82.9260,20.35,1111122 
COMPS,ioos:station:USF.COMPS:C10:1,2019-03-03T07:05:00Z,27.1690,-82.9260,20.26,1111122 
COMPS,ioos:station:USF.COMPS:C10:1,2019-03-03T07:35:00Z,27.1690,-82.9260,20.09,1111122 
COMPS,ioos:station:USF.COMPS:C10:1,2019-03-03T08:05:00Z,27.1690,-82.9260,20.08,1111122 
COMPS,ioos:station:USF.COMPS:C10:1,2019-03-03T08:35:00Z,27.1690,-82.9260,19.77,1111122 
COMPS,ioos:station:USF.COMPS:C10:1,2019-03-03T09:05:00Z,27.1690,-82.9260,19.52,1111122 
COMPS,ioos:station:USF.COMPS:C10:1,2019-03-03T09:35:00Z,27.1690,-82.9260,19.43,1111122 
COMPS,ioos:station:USF.COMPS:C10:1,2019-03-03T10:05:00Z,27.1690,-82.9260,19.44,1111122 
COMPS,ioos:station:USF.COMPS:C10:1,2019-03-03T10:35:00Z,27.1690,-82.9260,19.29,1111122 
COMPS,ioos:station:USF.COMPS:C10:1,2019-03-03T11:05:00Z,27.1690,-82.9260,19.1,1111122 
COMPS,ioos:station:USF.COMPS:C10:1,2019-03-03T11:35:00Z,27.1690,-82.9260,18.87,1111122 
COMPS,ioos:station:USF.COMPS:C10:1,2019-03-03T12:05:00Z,27.1690,-82.9260,18.89,1111122 
COMPS,ioos:station:USF.COMPS:C10:1,2019-03-03T12:35:00Z,27.1690,-82.9260,18.84,1111122 
COMPS,ioos:station:USF.COMPS:C10:1,2019-03-03T13:05:00Z,27.1690,-82.9260,18.89,1111122 
COMPS,ioos:station:USF.COMPS:C10:1,2019-03-03T13:35:00Z,27.1690,-82.9260,19.16,1111122 
COMPS,ioos:station:USF.COMPS:C10:1,2019-03-03T14:05:00Z,27.1690,-82.9260,19.53,1111122 
COMPS,ioos:station:USF.COMPS:C10:1,2019-03-03T14:35:00Z,27.1690,-82.9260,19.72,1111122 
COMPS,ioos:station:USF.COMPS:C10:1,2019-03-03T15:05:00Z,27.1690,-82.9260,20.03,1111122 
COMPS,ioos:station:USF.COMPS:C10:1,2019-03-03T15:35:00Z,27.1690,-82.9260,20.4,1111122 
COMPS,ioos:station:USF.COMPS:C10:1,2019-03-03T16:05:00Z,27.1690,-82.9260,20.38,1111122 
COMPS,ioos:station:USF.COMPS:C10:1,2019-03-03T16:35:00Z,27.1690,-82.9260,20.69,1111122 
COMPS,ioos:station:USF.COMPS:C10:1,2019-03-03T17:05:00Z,27.1690,-82.9260,21.13,1111122 
COMPS,ioos:station:USF.COMPS:C10:1,2019-03-03T17:35:00Z,27.1690,-82.9260,21.35,1111122 
COMPS,ioos:station:USF.COMPS:C10:1,2019-03-03T18:05:00Z,27.1690,-82.9260,21.38,1111122 
COMPS,ioos:station:USF.COMPS:C10:1,2019-03-03T18:35:00Z,27.1690,-82.9260,21.68,1111122 
COMPS,ioos:station:USF.COMPS:C10:1,2019-03-03T19:05:00Z,27.1690,-82.9260,21.82,1111122 
COMPS,ioos:station:USF.COMPS:C10:1,2019-03-03T19:35:00Z,27.1690,-82.9260,21.92,1111122 
COMPS,ioos:station:USF.COMPS:C10:1,2019-03-03T20:05:00Z,27.1690,-82.9260,22.0,1111122 
COMPS,ioos:station:USF.COMPS:C10:1,2019-03-03T20:35:00Z,27.1690,-82.9260,21.99,1111122 
COMPS,ioos:station:USF.COMPS:C10:1,2019-03-03T21:05:00Z,27.1690,-82.9260,22.12,1111122 
COMPS,ioos:station:USF.COMPS:C10:1,2019-03-03T21:35:00Z,27.1690,-82.9260,22.44,1111122 
COMPS,ioos:station:USF.COMPS:C10:1,2019-03-03T22:05:00Z,27.1690,-82.9260,22.52,1111122 
COMPS,ioos:station:USF.COMPS:C10:1,2019-03-03T22:35:00Z,27.1690,-82.9260,22.51,1111122 
COMPS,ioos:station:USF.COMPS:C10:1,2019-03-03T23:05:00Z,27.1690,-82.9260,22.29,1111122 
COMPS,ioos:station:USF.COMPS:C10:1,2019-03-03T23:35:00Z,27.1690,-82.9260,22.05,1111122 
COMPS,ioos:station:USF.COMPS:C10:1,2019-03-04T00:05:00Z,27.1690,-82.9260,22.06,1111122 
COMPS,ioos:station:USF.COMPS:C10:1,2019-03-04T00:35:00Z,27.1690,-82.9260,21.94,1111122 
COMPS,ioos:station:USF.COMPS:C10:1,2019-03-04T01:05:00Z,27.1690,-82.9260,21.95,1111122 
COMPS,ioos:station:USF.COMPS:C10:1,2019-03-04T01:35:00Z,27.1690,-82.9260,21.96,1111122 
COMPS,ioos:station:USF.COMPS:C10:1,2019-03-04T02:05:00Z,27.1690,-82.9260,21.87,1111122 
COMPS,ioos:station:USF.COMPS:C10:1,2019-03-04T02:35:00Z,27.1690,-82.9260,21.8,1111122 
COMPS,ioos:station:USF.COMPS:C10:1,2019-03-04T03:05:00Z,27.1690,-82.9260,21.91,1111122 
COMPS,ioos:station:USF.COMPS:C10:1,2019-03-04T03:35:00Z,27.1690,-82.9260,21.92,1111122 
COMPS,ioos:station:USF.COMPS:C10:1,2019-03-04T04:05:00Z,27.1690,-82.9260,21.99,1111122 
COMPS,ioos:station:USF.COMPS:C10:1,2019-03-04T04:35:00Z,27.1690,-82.9260,22.06,1111122 
COMPS,ioos:station:USF.COMPS:C10:1,2019-03-04T05:05:00Z,27.1690,-82.9260,22.04,1111122 
COMPS,ioos:station:USF.COMPS:C10:1,2019-03-04T05:35:00Z,27.1690,-82.9260,22.06,1111122 
COMPS,ioos:station:USF.COMPS:C10:1,2019-03-04T06:05:00Z,27.1690,-82.9260,22.03,1111122 
COMPS,ioos:station:USF.COMPS:C10:1,2019-03-04T06:35:00Z,27.1690,-82.9260,22.12,1111122 
COMPS,ioos:station:USF.COMPS:C10:1,2019-03-04T07:05:00Z,27.1690,-82.9260,22.09,1111122 
COMPS,ioos:station:USF.COMPS:C10:1,2019-03-04T07:35:00Z,27.1690,-82.9260,22.14,1111122 
COMPS,ioos:station:USF.COMPS:C10:1,2019-03-04T08:05:00Z,27.1690,-82.9260,22.12,1111122 
COMPS,ioos:station:USF.COMPS:C10:1,2019-03-04T08:35:00Z,27.1690,-82.9260,22.13,1111122 
COMPS,ioos:station:USF.COMPS:C10:1,2019-03-04T09:05:00Z,27.1690,-82.9260,22.12,1111122 
COMPS,ioos:station:USF.COMPS:C10:1,2019-03-04T09:35:00Z,27.1690,-82.9260,22.23,1111122 
COMPS,ioos:station:USF.COMPS:C10:1,2019-03-04T10:05:00Z,27.1690,-82.9260,22.22,1111122 
COMPS,ioos:station:USF.COMPS:C10:1,2019-03-04T10:35:00Z,27.1690,-82.9260,22.2,1111122 
COMPS,ioos:station:USF.COMPS:C10:1,2019-03-04T11:05:00Z,27.1690,-82.9260,22.16,1111122 
COMPS,ioos:station:USF.COMPS:C10:1,2019-03-04T11:35:00Z,27.1690,-82.9260,22.1,1111122 
COMPS,ioos:station:USF.COMPS:C10:1,2019-03-04T12:05:00Z,27.1690,-82.9260,22.07,1111122 
COMPS,ioos:station:USF.COMPS:C10:1,2019-03-04T12:35:00Z,27.1690,-82.9260,22.1,1111122 
COMPS,ioos:station:USF.COMPS:C10:1,2019-03-04T13:05:00Z,27.1690,-82.9260,22.13,1111122 
COMPS,ioos:station:USF.COMPS:C10:1,2019-03-04T13:35:00Z,27.1690,-82.9260,22.11,1111122 
COMPS,ioos:station:USF.COMPS:C10:1,2019-03-04T14:05:00Z,27.1690,-82.9260,22.16,1111122 
COMPS,ioos:station:USF.COMPS:C10:1,2019-03-04T14:35:00Z,27.1690,-82.9260,22.14,1111122 
COMPS,ioos:station:USF.COMPS:C10:1,2019-03-04T15:05:00Z,27.1690,-82.9260,22.23,1111122 
COMPS,ioos:station:USF.COMPS:C10:1,2019-03-04T15:35:00Z,27.1690,-82.9260,22.17,1111122 
COMPS,ioos:station:USF.COMPS:C10:1,2019-03-04T16:05:00Z,27.1690,-82.9260,22.29,1111122 
COMPS,ioos:station:USF.COMPS:C10:1,2019-03-04T16:35:00Z,27.1690,-82.9260,22.14,1111122 
COMPS,ioos:station:USF.COMPS:C10:1,2019-03-04T17:05:00Z,27.1690,-82.9260,22.24,1111122 
COMPS,ioos:station:USF.COMPS:C10:1,2019-03-04T17:35:00Z,27.1690,-82.9260,22.3,1111122 
COMPS,ioos:station:USF.COMPS:C10:1,2019-03-04T18:05:00Z,27.1690,-82.9260,21.71,1111122 
COMPS,ioos:station:USF.COMPS:C10:1,2019-03-04T18:35:00Z,27.1690,-82.9260,21.06,1111122 
COMPS,ioos:station:USF.COMPS:C10:1,2019-03-04T19:05:00Z,27.1690,-82.9260,20.7,1111122 
COMPS,ioos:station:USF.COMPS:C10:1,2019-03-04T19:35:00Z,27.1690,-82.9260,20.59,1111122 
COMPS,ioos:station:USF.COMPS:C10:1,2019-03-04T20:05:00Z,27.1690,-82.9260,20.4,1111122 
COMPS,ioos:station:USF.COMPS:C10:1,2019-03-04T20:35:00Z,27.1690,-82.9260,20.26,1111122 
COMPS,ioos:station:USF.COMPS:C10:1,2019-03-04T21:05:00Z,27.1690,-82.9260,20.33,1111122 
COMPS,ioos:station:USF.COMPS:C10:1,2019-03-04T21:35:00Z,27.1690,-82.9260,20.19,1111122 
COMPS,ioos:station:USF.COMPS:C10:1,2019-03-04T22:05:00Z,27.1690,-82.9260,20.04,1111122 
COMPS,ioos:station:USF.COMPS:C10:1,2019-03-04T22:35:00Z,27.1690,-82.9260,20.14,1111122 
COMPS,ioos:station:USF.COMPS:C10:1,2019-03-04T23:05:00Z,27.1690,-82.9260,20.03,1111122 
COMPS,ioos:station:USF.COMPS:C10:1,2019-03-04T23:35:00Z,27.1690,-82.9260,19.74,1111122 
COMPS,ioos:station:USF.COMPS:C10:1,2019-03-05T02:05:00Z,27.1690,-82.9260,18.52,1111122 
COMPS,ioos:station:USF.COMPS:C10:1,2019-03-05T02:35:00Z,27.1690,-82.9260,18.37,1111122 
COMPS,ioos:station:USF.COMPS:C10:1,2019-03-05T03:05:00Z,27.1690,-82.9260,18.37,1111122 
COMPS,ioos:station:USF.COMPS:C10:1,2019-03-05T03:35:00Z,27.1690,-82.9260,18.13,1111122 
COMPS,ioos:station:USF.COMPS:C10:1,2019-03-05T04:05:00Z,27.1690,-82.9260,18.14,1111122 
COMPS,ioos:station:USF.COMPS:C10:1,2019-03-05T04:35:00Z,27.1690,-82.9260,17.86,1111122 
COMPS,ioos:station:USF.COMPS:C10:1,2019-03-05T05:05:00Z,27.1690,-82.9260,17.84,1111122 
COMPS,ioos:station:USF.COMPS:C10:1,2019-03-05T05:35:00Z,27.1690,-82.9260,17.63,1111122 
COMPS,ioos:station:USF.COMPS:C10:1,2019-03-05T06:05:00Z,27.1690,-82.9260,17.67,1111122 
COMPS,ioos:station:USF.COMPS:C10:1,2019-03-05T06:35:00Z,27.1690,-82.9260,17.62,1111122 
COMPS,ioos:station:USF.COMPS:C10:1,2019-03-05T07:05:00Z,27.1690,-82.9260,17.77,1111122 
COMPS,ioos:station:USF.COMPS:C10:1,2019-03-05T07:35:00Z,27.1690,-82.9260,17.95,1111122 
COMPS,ioos:station:USF.COMPS:C10:1,2019-03-05T08:05:00Z,27.1690,-82.9260,17.95,1111122 
COMPS,ioos:station:USF.COMPS:C10:1,2019-03-05T08:35:00Z,27.1690,-82.9260,17.98,1111122 
COMPS,ioos:station:USF.COMPS:C10:1,2019-03-05T09:05:00Z,27.1690,-82.9260,18.2,1111122 
COMPS,ioos:station:USF.COMPS:C10:1,2019-03-05T09:35:00Z,27.1690,-82.9260,18.23,1111122 
COMPS,ioos:station:USF.COMPS:C10:1,2019-03-05T10:05:00Z,27.1690,-82.9260,18.31,1111122 
COMPS,ioos:station:USF.COMPS:C10:1,2019-03-05T10:35:00Z,27.1690,-82.9260,18.25,1111122 
COMPS,ioos:station:USF.COMPS:C10:1,2019-03-05T11:05:00Z,27.1690,-82.9260,18.17,1111122 
COMPS,ioos:station:USF.COMPS:C10:1,2019-03-05T11:35:00Z,27.1690,-82.9260,18.21,1111122 
COMPS,ioos:station:USF.COMPS:C10:1,2019-03-05T12:05:00Z,27.1690,-82.9260,18.34,1111122 
COMPS,ioos:station:USF.COMPS:C10:1,2019-03-05T12:35:00Z,27.1690,-82.9260,18.48,1111122 
COMPS,ioos:station:USF.COMPS:C10:1,2019-03-05T13:05:00Z,27.1690,-82.9260,18.54,1111122 
COMPS,ioos:station:USF.COMPS:C10:1,2019-03-05T13:35:00Z,27.1690,-82.9260,18.48,1111122 
COMPS,ioos:station:USF.COMPS:C10:1,2019-03-05T14:05:00Z,27.1690,-82.9260,18.19,1111122 
COMPS,ioos:station:USF.COMPS:C10:1,2019-03-05T14:35:00Z,27.1690,-82.9260,17.53,1111122 
COMPS,ioos:station:USF.COMPS:C10:1,2019-03-05T15:05:00Z,27.1690,-82.9260,17.03,1111122 
COMPS,ioos:station:USF.COMPS:C10:1,2019-03-05T15:35:00Z,27.1690,-82.9260,16.5,1111122 
COMPS,ioos:station:USF.COMPS:C10:1,2019-03-05T16:05:00Z,27.1690,-82.9260,16.46,1111122 
COMPS,ioos:station:USF.COMPS:C10:1,2019-03-05T16:35:00Z,27.1690,-82.9260,16.52,1111122 
COMPS,ioos:station:USF.COMPS:C10:1,2019-03-05T17:05:00Z,27.1690,-82.9260,16.41,1111122 
COMPS,ioos:station:USF.COMPS:C10:1,2019-03-05T17:35:00Z,27.1690,-82.9260,16.76,1111122 
COMPS,ioos:station:USF.COMPS:C10:1,2019-03-05T18:05:00Z,27.1690,-82.9260,16.66,1111122 
COMPS,ioos:station:USF.COMPS:C10:1,2019-03-05T18:35:00Z,27.1690,-82.9260,16.61,1111122 
COMPS,ioos:station:USF.COMPS:C10:1,2019-03-05T19:05:00Z,27.1690,-82.9260,16.44,1111122 
COMPS,ioos:station:USF.COMPS:C10:1,2019-03-05T19:35:00Z,27.1690,-82.9260,16.39,1111122 
COMPS,ioos:station:USF.COMPS:C10:1,2019-03-05T20:05:00Z,27.1690,-82.9260,16.43,1111122 
COMPS,ioos:station:USF.COMPS:C10:1,2019-03-05T20:35:00Z,27.1690,-82.9260,16.13,1111122 
COMPS,ioos:station:USF.COMPS:C10:1,2019-03-05T21:05:00Z,27.1690,-82.9260,16.03,1111122 
COMPS,ioos:station:USF.COMPS:C10:1,2019-03-05T21:35:00Z,27.1690,-82.9260,15.61,1111122 
COMPS,ioos:station:USF.COMPS:C10:1,2019-03-05T22:05:00Z,27.1690,-82.9260,15.73,1111122 
COMPS,ioos:station:USF.COMPS:C10:1,2019-03-05T22:35:00Z,27.1690,-82.9260,15.69,1111122 
COMPS,ioos:station:USF.COMPS:C10:1,2019-03-05T23:05:00Z,27.1690,-82.9260,15.53,1111122 
COMPS,ioos:station:USF.COMPS:C10:1,2019-03-05T23:35:00Z,27.1690,-82.9260,15.57,1111122 
COMPS,ioos:station:USF.COMPS:C10:1,2019-03-06T01:05:00Z,27.1690,-82.9260,14.81,1111122 
COMPS,ioos:station:USF.COMPS:C10:1,2019-03-06T01:35:00Z,27.1690,-82.9260,14.65,1111122 
COMPS,ioos:station:USF.COMPS:C10:1,2019-03-06T02:05:00Z,27.1690,-82.9260,14.61,1111122 
COMPS,ioos:station:USF.COMPS:C10:1,2019-03-06T04:05:00Z,27.1690,-82.9260,15.04,1111122 
COMPS,ioos:station:USF.COMPS:C10:1,2019-03-06T04:35:00Z,27.1690,-82.9260,15.48,1111122 
COMPS,ioos:station:USF.COMPS:C10:1,2019-03-06T05:05:00Z,27.1690,-82.9260,15.59,1111122 
COMPS,ioos:station:USF.COMPS:C10:1,2019-03-06T05:35:00Z,27.1690,-82.9260,15.71,1111122 
COMPS,ioos:station:USF.COMPS:C10:1,2019-03-06T10:05:00Z,27.1690,-82.9260,14.4,1111122 
COMPS,ioos:station:USF.COMPS:C10:1,2019-03-06T10:35:00Z,27.1690,-82.9260,14.21,1111122 
COMPS,ioos:station:USF.COMPS:C10:1,2019-03-06T11:05:00Z,27.1690,-82.9260,13.65,1111122 
COMPS,ioos:station:USF.COMPS:C10:1,2019-03-06T11:35:00Z,27.1690,-82.9260,13.42,1111122 
COMPS,ioos:station:USF.COMPS:C10:1,2019-03-06T12:05:00Z,27.1690,-82.9260,13.25,1111122 
COMPS,ioos:station:USF.COMPS:C10:1,2019-03-06T12:35:00Z,27.1690,-82.9260,12.77,1111122 
COMPS,ioos:station:USF.COMPS:C10:1,2019-03-06T13:05:00Z,27.1690,-82.9260,12.59,1111122 
COMPS,ioos:station:USF.COMPS:C10:1,2019-03-06T13:35:00Z,27.1690,-82.9260,12.23,1111122 
COMPS,ioos:station:USF.COMPS:C10:1,2019-03-06T14:05:00Z,27.1690,-82.9260,11.34,1111122 
COMPS,ioos:station:USF.COMPS:C10:1,2019-03-06T14:35:00Z,27.1690,-82.9260,11.48,1111122 
COMPS,ioos:station:USF.COMPS:C10:1,2019-03-06T16:05:00Z,27.1690,-82.9260,11.67,1111122 
COMPS,ioos:station:USF.COMPS:C10:1,2019-03-06T16:35:00Z,27.1690,-82.9260,11.88,1111122 
COMPS,ioos:station:USF.COMPS:C10:1,2019-03-06T18:05:00Z,27.1690,-82.9260,12.92,1111122 
COMPS,ioos:station:USF.COMPS:C10:1,2019-03-06T18:35:00Z,27.1690,-82.9260,13.16,1111122 
COMPS,ioos:station:USF.COMPS:C10:1,2019-03-06T19:05:00Z,27.1690,-82.9260,13.22,1111122 
COMPS,ioos:station:USF.COMPS:C10:1,2019-03-06T19:35:00Z,27.1690,-82.9260,13.39,1111122 
COMPS,ioos:station:USF.COMPS:C10:1,2019-03-06T20:05:00Z,27.1690,-82.9260,13.47,1111122 
COMPS,ioos:station:USF.COMPS:C10:1,2019-03-06T20:35:00Z,27.1690,-82.9260,13.72,1111122 
COMPS,ioos:station:USF.COMPS:C10:1,2019-03-06T21:05:00Z,27.1690,-82.9260,13.66,1111122 
COMPS,ioos:station:USF.COMPS:C10:1,2019-03-06T21:35:00Z,27.1690,-82.9260,13.84,1111122 
COMPS,ioos:station:USF.COMPS:C10:1,2019-03-06T22:05:00Z,27.1690,-82.9260,14.05,1111122 
COMPS,ioos:station:USF.COMPS:C10:1,2019-03-06T22:35:00Z,27.1690,-82.9260,14.44,1111122 
COMPS,ioos:station:USF.COMPS:C10:1,2019-03-07T00:05:00Z,27.1690,-82.9260,14.89,1111122 
COMPS,ioos:station:USF.COMPS:C10:1,2019-03-07T00:35:00Z,27.1690,-82.9260,14.97,1111122 
COMPS,ioos:station:USF.COMPS:C10:1,2019-03-07T06:05:00Z,27.1690,-82.9260,13.98,1111122 
COMPS,ioos:station:USF.COMPS:C10:1,2019-03-07T06:35:00Z,27.1690,-82.9260,13.44,1111122 
COMPS,ioos:station:USF.COMPS:C10:1,2019-03-07T07:05:00Z,27.1690,-82.9260,13.02,1111122 
COMPS,ioos:station:USF.COMPS:C10:1,2019-03-07T07:35:00Z,27.1690,-82.9260,12.96,1111122 
COMPS,ioos:station:USF.COMPS:C10:1,2019-03-07T08:05:00Z,27.1690,-82.9260,13.26,1111122 